EDT,Max TemperatureF,Mean TemperatureF,Min TemperatureF,Max Dew PointF,MeanDew PointF,Min DewpointF,Max Humidity, Mean Humidity, Min Humidity, Max Sea Level PressureIn, Mean Sea Level PressureIn, Min Sea Level PressureIn, Max VisibilityMiles, Mean VisibilityMiles, Min VisibilityMiles, Max Wind SpeedMPH, Mean Wind SpeedMPH, Max Gust SpeedMPH,PrecipitationIn, CloudCover, Events, WindDirDegrees
2013-9-1,81,76,70,73,71,69,97,89,76,29.89,29.86,29.82,10,8,2,13,6,20,0.24,7,Rain-Thunderstorm,193
2013-9-2,82,76,72,74,72,71,97,91,77,29.87,29.79,29.73,10,7,1,10,5,22,0.30,7,Rain-Thunderstorm,174
2013-9-3,82,74,64,71,69,62,93,88,67,29.82,29.75,29.69,10,8,1,9,5,16,0.22,6,Rain-Thunderstorm,222
2013-9-4,81,68,57,60,57,55,93,72,43,29.93,29.88,29.82,10,10,10,10,3,,0.00,0,,263
2013-9-5,72,58,46,63,55,46,97,86,65,30.13,30.00,29.88,10,7,0,9,2,,0.06,3,Fog-Rain,2
2013-9-6,69,54,41,53,43,40,97,86,37,30.24,30.16,30.11,10,5,1,6,1,,0.00,0,,291
2013-9-7,78,59,41,57,48,39,97,71,40,30.11,30.01,29.88,10,8,2,10,3,17,0.00,0,,222
2013-9-8,79,64,46,61,53,39,87,64,35,30.09,29.85,29.75,10,10,10,15,6,22,0.00,4,,285
2013-9-9,69,52,37,51,43,37,97,76,39,30.25,30.19,30.11,10,9,1,8,1,,0.00,0,,201
2013-9-10,75,63,51,68,61,49,92,81,71,30.18,30.12,30.06,10,10,8,15,6,24,0.01,7,,191
2013-9-11,93,81,69,75,71,68,96,80,54,30.09,30.04,29.97,9,6,2,10,5,21,0.00,1,,205
2013-9-12,82,76,70,71,69,68,93,84,67,29.97,29.85,29.70,10,6,2,13,5,22,0.08,4,Rain,196
2013-9-13,79,70,61,69,62,56,84,75,62,29.74,29.64,29.58,10,7,2,9,3,17,0.25,7,Rain,244
2013-9-14,71,60,50,55,53,48,93,72,54,30.06,29.91,29.76,10,9,2,9,5,,0.00,6,,309
2013-9-15,72,58,43,53,46,41,100,86,47,30.17,30.10,30.06,10,5,1,9,1,,0.00,0,,200
2013-9-16,70,60,51,56,52,39,97,81,57,30.22,30.07,30.02,10,8,1,9,2,,0.03,3,Rain,280
2013-9-17,62,49,37,43,37,34,96,74,36,30.41,30.34,30.25,10,8,0,12,5,21,0.00,1,Fog,347
2013-9-18,73,53,33,49,37,33,100,82,29,30.33,30.29,30.16,10,5,1,7,1,,0.00,0,,219
2013-9-19,80,60,41,56,46,39,97,75,36,30.16,30.11,30.04,10,8,1,7,1,,0.00,0,,232
2013-9-20,82,62,43,56,47,42,97,86,34,30.09,30.05,30.01,10,4,0,7,1,,0.00,0,Fog,179
2013-9-21,77,62,50,65,57,49,97,84,55,30.04,29.95,29.75,10,6,0,14,4,24,0.00,5,Fog,170
2013-9-22,73,64,53,66,60,46,94,79,49,29.83,29.69,29.64,10,8,2,14,8,26,0.50,7,Rain,247
2013-9-23,66,54,39,46,42,38,93,69,42,30.00,29.91,29.83,10,10,10,10,5,20,0.00,0,,311
2013-9-24,69,54,39,51,42,37,93,70,37,30.00,29.91,29.81,10,10,10,10,3,18,0.00,1,,288
2013-9-25,69,54,39,51,43,38,97,81,47,29.98,29.91,29.88,10,6,0,12,1,16,0.00,2,Fog,46
2013-9-26,66,57,48,51,48,44,93,76,48,30.11,30.04,29.98,10,10,10,9,2,,0.00,6,,23
2013-9-27,66,54,42,53,47,41,97,83,54,30.26,30.22,30.12,10,6,0,10,3,,0.00,3,Fog,355
2013-9-28,75,56,39,54,44,37,97,87,46,30.32,30.27,30.25,10,4,0,8,1,,0.00,1,Fog,68
2013-9-29,70,56,42,54,48,41,97,83,42,30.26,30.18,30.11,10,5,0,7,1,,0.00,3,Fog,70
2013-9-30,70,54,39,54,48,39,100,87,52,30.11,30.03,29.97,10,5,0,7,1,,0.00,4,Fog,356